Regional Weather Roundup
Issued by NWS State College, PA

Home | Current Version | Previous Version | Text Only | Print | Product List | Glossary On
Versions: 1 2 3 4 5 6 7 8 9 10 11 12 13 14 15 16 17 18 19 20 21 22 23 24 25 26 27 28 29 30 31 32 33 34 35 36 37 38 39 40 41 42 43 44 45 46 47 48 49 50
000
ASUS41 KCTP 221810
RWRCTP

REGIONAL WEATHER ROUNDUP
NATIONAL WEATHER SERVICE STATE COLLEGE PA
100 PM EST SUN JAN 22 2017

Note: "fair" indicates few or no clouds below 12,000 feet with no
significant weather and/or obstructions to visibility.

* = STATION THAT DOES NOT REPORT PRECIPITATION /E.G. RAIN...SNOW...ETC/
    THUNDER OR FOG.

PAZ002>004-007>009-013>016-020>023-029>032-221900-
WESTERN PENNSYLVANIA

CITY           SKY/WX    TMP DP  RH WIND       PRES   REMARKS
ERIE           CLOUDY    56  46  69 NE9       29.61F
MEADVILLE      CLOUDY    58  47  66 E6        29.61F
FRANKLIN*        N/A     54  48  82 CALM      29.63F
NEW CASTLE     CLOUDY    57  51  80 VRB5      29.62F
BEAVER COUNTY  NOT AVBL
BUTLER*        CLOUDY    55  48  76 NE6       29.62F
PITTSBURGH INT CLOUDY    58  49  72 NE6       29.57F
PITTSBURGH     CLOUDY    60  45  57 VRB5      29.56F
INDIANA*       PTSUNNY   61  50  67 NE8       29.61F
LATROBE        MOSUNNY   59  48  67 NE9       29.58F
WASHINGTON CO* CLOUDY    57  45  62 E3        29.58F
$$

PAZ004>006-010>012-017>019-024>028-033>037-041-042-045-046-049>053-221900-
CENTRAL PENNSYLVANIA

CITY           SKY/WX    TMP DP  RH WIND       PRES   REMARKS
BRADFORD       MOSUNNY   57  47  69 SE7       29.63F
DUBOIS         CLOUDY    60  45  57 VRB7      29.62F
CLEARFIELD     CLOUDY    52  47  83 NE6       29.64F
JOHNSTOWN      CLOUDY    57  47  69 SE6       29.59F
ALTOONA        FOG       44  44 100 E3        29.64F VSB 1/4
STATE COLLEGE  FOG       41  41 100 CALM      29.66F VSB 1/8
WILLIAMSPORT   CLOUDY    44  41  89 CALM      29.66F
SELINSGROVE    CLOUDY    43  42  97 CALM      29.69F FOG
FT INDIANTOWN  CLOUDY    45  45 100 CALM      29.67F
CAPITAL CITY   CLOUDY    46  42  86 N3        29.65F FOG
HARRISBURG     FOG       45  45 100 N3        29.65F VSB 1
YORK           CLOUDY    45  45 100 NE5       29.64F FOG
$$

PAZ038>040-043-044-047-048-054-055-060>062-067>071-221900-
EASTERN PENNSYLVANIA

CITY           SKY/WX    TMP DP  RH WIND       PRES   REMARKS
SCRANTON       CLOUDY    46  45  96 CALM      29.66F FOG
MOUNT POCONO   FOG       46  45  96 E8        29.66F VSB 1/4
ALLENTOWN      FOG       47  44  90 E5        29.69F VSB 1
QUAKERTOWN*    CLOUDY    46  46 100 CALM      29.69F
READING        FOG       44  44 100 N5        29.68F VSB 1/2
LANCASTER      CLOUDY    45  45 100 N6        29.66F FOG
COATESVILLE    CLOUDY    48  48 100 N6        29.66F FOG
POTTSTOWN      CLOUDY    45  45 100 N6        29.69F FOG
BLUE BELL      CLOUDY    45  45 100 CALM      29.67F
DOYLESTOWN     CLOUDY    48  47  96 N5        29.67F
WILLOW GROVE   NOT AVBL
NORTH PHILA    CLOUDY    50  48  93 N8        29.69F FOG
PHILADELPHIA   CLOUDY    50  47  89 NE6       29.66F
$$




USA.gov is the U.S. government's official web portal to all federal, state and local government web resources and services.